Dawson, IA

2:02 PM CDT on August 29, 2016 (GMT -0500)
Perry Municipal

Weather History for KPRO - February, 2013

Change the Weather History Date:

Friday, February 8, 2013

  Actual Average Record
Temperature  
Mean Temperature 25 °F -  
Max Temperature 27 °F 30 °F 65 °F (1987)
Min Temperature 23 °F 8 °F -22 °F (1971)
Degree Days  
Heating Degree Days 40    
Moisture  
Dew Point 23 °F    
Average Humidity 89    
Maximum Humidity 93    
Minimum Humidity 85    
Precipitation  
Precipitation 0.00 in - - ()
Sea Level Pressure  
Sea Level Pressure 30.29 in    
Wind  
Wind Speed 11 mph (East)    
Max Wind Speed 16 mph    
Max Gust Speed 18 mph    
Visibility 10 miles    
Events      
Averages and records for this station are not official NWS values.
T = Trace of Precipitation, MM = Missing Value Source: NWS Daily Summary

Daily Weather History Graph

Daily Weather History Graph

Search for Another Location

Airport or City:

Trip Planner

Search our weather history database for the weather conditions in past years. The results will help you decide how hot, cold, wet, or windy it might be!

Date:

Astronomy

Feb. 08, 2013 Rise Set
Actual Time 7:20 AM CST 5:41 PM CST
Civil Twilight 6:51 AM CST 6:10 PM CST
Nautical Twilight 6:19 AM CST 6:43 PM CST
Astronomical Twilight 5:46 AM CST 7:15 PM CST
Moon 5:50 AM CST (2/8) 4:15 PM CST (2/8)
Length of Visible Light 11h 18m
Length of Day
10h 20m
Waning Crescent, 3% of the Moon is Illuminated
Feb 8
Waning Crescent
Feb 10
New
Feb 17
First Quarter
Feb 25
Full
Mar 4
Last Quarter

Hourly Weather History & Observations

Time (CST) Temp. Windchill Dew Point Humidity Pressure Visibility Wind Dir Wind Speed Gust Speed Precip Events Conditions
12:15 AM 27.1 °F 15.9 °F 24.1 °F 88% 30.22 in 10.0 mi North 13.8 mph - N/A   Overcast
12:35 AM 26.6 °F 14.7 °F 23.5 °F 88% 30.24 in 10.0 mi North 15.0 mph - N/A   Overcast
12:55 AM 26.6 °F 15.2 °F 23.4 °F 88% 30.23 in 10.0 mi NNW 13.8 mph 18.4 mph N/A   Overcast
1:15 AM 26.6 °F 15.2 °F 23.4 °F 88% 30.24 in 10.0 mi North 13.8 mph - N/A   Overcast
1:35 AM 26.6 °F 14.3 °F 23.0 °F 86% 30.24 in 10.0 mi North 16.1 mph - N/A   Overcast
1:55 AM 26.6 °F 14.7 °F 23.0 °F 86% 30.26 in 10.0 mi North 15.0 mph 18.4 mph N/A   Overcast
2:15 AM 26.4 °F 15.0 °F 22.6 °F 86% 30.27 in 10.0 mi NNW 13.8 mph - N/A   Overcast
2:35 AM 26.4 °F 15.0 °F 22.6 °F 86% 30.28 in 10.0 mi North 13.8 mph - N/A   Overcast
2:55 AM 26.4 °F 15.0 °F 22.8 °F 86% 30.27 in 10.0 mi North 13.8 mph - N/A   Overcast
3:15 AM 26.2 °F 15.8 °F 22.3 °F 85% 30.27 in 10.0 mi North 11.5 mph - N/A   Overcast
3:35 AM 26.2 °F 14.2 °F 22.5 °F 86% 30.26 in 10.0 mi North 15.0 mph - N/A   Overcast
3:55 AM 25.7 °F 15.1 °F 22.1 °F 86% 30.27 in 10.0 mi North 11.5 mph - N/A   Overcast
4:15 AM 25.5 °F 14.3 °F 21.9 °F 86% 30.28 in 10.0 mi North 12.7 mph - N/A   Overcast
4:35 AM 25.5 °F 14.3 °F 21.6 °F 85% 30.28 in 10.0 mi North 12.7 mph - N/A   Overcast
4:55 AM 25.5 °F 16.2 °F 21.9 °F 86% 30.28 in 10.0 mi North 9.2 mph - N/A   Overcast
5:15 AM 25.2 °F 15.7 °F 22.1 °F 88% 30.29 in 10.0 mi NNW 9.2 mph - N/A   Overcast
5:35 AM 24.8 °F 14.6 °F 21.6 °F 87% 30.30 in 10.0 mi North 10.4 mph - N/A   Overcast
5:55 AM 24.4 °F 14.2 °F 21.6 °F 89% 30.30 in 10.0 mi North 10.4 mph - N/A   Overcast
6:15 AM 24.4 °F 14.9 °F 21.6 °F 89% 30.30 in 10.0 mi North 9.2 mph - N/A   Overcast
6:35 AM 23.9 °F 13.5 °F 21.0 °F 89% 30.30 in 10.0 mi North 10.4 mph - N/A   Overcast
6:55 AM 23.5 °F 14.5 °F 21.2 °F 91% 30.31 in 10.0 mi NE 8.1 mph - N/A   Overcast
7:15 AM 23.5 °F 15.4 °F 21.2 °F 91% 30.31 in 10.0 mi North 6.9 mph - N/A   Overcast
7:35 AM 23.2 °F 16.0 °F 21.0 °F 91% 30.33 in 10.0 mi North 5.8 mph - N/A   Overcast
7:55 AM 23.4 °F 18.9 °F 21.0 °F 91% 30.33 in 10.0 mi NNE 3.5 mph - N/A   Overcast
8:15 AM 23.4 °F 18.9 °F 21.2 °F 91% 30.34 in 10.0 mi NNE 3.5 mph - N/A   Overcast
8:35 AM 23.7 °F 15.6 °F 21.2 °F 90% 30.34 in 10.0 mi NNE 6.9 mph - N/A   Overcast
8:55 AM 23.5 °F 16.4 °F 21.2 °F 91% 30.34 in 10.0 mi NNE 5.8 mph - N/A   Overcast
9:15 AM 23.5 °F - 21.2 °F 91% 30.35 in 10.0 mi Calm Calm - N/A   Overcast
9:35 AM 23.7 °F 19.3 °F 21.4 °F 91% 30.35 in 10.0 mi ENE 3.5 mph - N/A   Overcast
9:55 AM 24.4 °F 18.6 °F 22.1 °F 91% 30.34 in 10.0 mi East 4.6 mph - N/A   Overcast
10:15 AM 24.6 °F 17.7 °F 21.9 °F 89% 30.35 in 10.0 mi ESE 5.8 mph - N/A   Overcast
10:35 AM 24.8 °F - 21.9 °F 89% 30.35 in 10.0 mi Calm Calm - N/A   Overcast
10:55 AM 25.2 °F 18.3 °F 22.3 °F 89% 30.35 in 10.0 mi East 5.8 mph - N/A   Overcast
11:15 AM 25.7 °F 21.5 °F 22.5 °F 88% 30.35 in 10.0 mi East 3.5 mph - N/A   Overcast
11:35 AM 25.7 °F 20.1 °F 22.5 °F 88% 30.35 in 10.0 mi East 4.6 mph - N/A   Overcast
11:55 AM 26.1 °F 18.4 °F 22.8 °F 88% 30.35 in 10.0 mi East 6.9 mph - N/A   Overcast
12:15 PM 26.4 °F 22.4 °F 22.8 °F 86% 30.34 in 10.0 mi East 3.5 mph - N/A   Overcast
12:35 PM 26.4 °F 20.9 °F 22.8 °F 86% 30.34 in 10.0 mi ESE 4.6 mph - N/A   Overcast
12:55 PM 27.0 °F 20.5 °F 23.5 °F 87% 30.33 in 7.0 mi East 5.8 mph - N/A   Overcast
1:15 PM 27.1 °F 19.7 °F 23.7 °F 87% 30.33 in 7.0 mi ESE 6.9 mph - N/A   Overcast
1:35 PM 27.3 °F 22.0 °F 24.1 °F 88% 30.33 in 10.0 mi South 4.6 mph - N/A   Overcast
1:55 PM 27.3 °F 23.4 °F 23.9 °F 87% 30.33 in 10.0 mi South 3.5 mph - N/A   Overcast
2:15 PM 27.5 °F 18.6 °F 24.6 °F 89% 30.33 in 10.0 mi South 9.2 mph - N/A   Overcast
2:35 PM 27.9 °F 20.6 °F 24.6 °F 88% 30.32 in 10.0 mi South 6.9 mph - N/A   Overcast
2:55 PM 27.5 °F 20.2 °F 24.4 °F 88% 30.31 in 10.0 mi South 6.9 mph - N/A   Overcast
3:15 PM 27.5 °F 18.6 °F 24.6 °F 89% 30.31 in 7.0 mi SSW 9.2 mph - N/A   Overcast
3:35 PM 27.5 °F 18.6 °F 24.4 °F 88% 30.29 in 7.0 mi SSE 9.2 mph - N/A   Overcast
3:55 PM 27.1 °F 18.2 °F 24.1 °F 88% 30.28 in 7.0 mi SE 9.2 mph - N/A   Overcast
4:15 PM 27.1 °F 17.5 °F 24.4 °F 90% 30.28 in 7.0 mi SE 10.4 mph - N/A   Overcast
4:35 PM 27.1 °F 17.5 °F 24.6 °F 90% 30.27 in 7.0 mi SSE 10.4 mph - N/A   Overcast
4:55 PM 27.3 °F 17.7 °F 24.8 °F 90% 30.27 in 7.0 mi SSE 10.4 mph - N/A   Overcast
5:15 PM 26.6 °F 18.2 °F 23.9 °F 90% 30.27 in 7.0 mi SSE 8.1 mph - N/A   Overcast
5:35 PM 26.8 °F 15.9 °F 24.1 °F 90% 30.28 in 7.0 mi South 12.7 mph - N/A   Overcast
5:55 PM 26.6 °F 15.7 °F 24.3 °F 91% 30.26 in 10.0 mi SSE 12.7 mph - N/A   Overcast
6:15 PM 26.6 °F 15.7 °F 24.3 °F 91% 30.26 in 10.0 mi SE 12.7 mph - N/A   Overcast
6:35 PM 27.0 °F 17.3 °F 24.6 °F 91% 30.27 in 10.0 mi South 10.4 mph - N/A   Overcast
6:55 PM 26.6 °F 14.7 °F 24.3 °F 91% 30.27 in 10.0 mi SSE 15.0 mph - N/A   Overcast
7:15 PM 26.6 °F 16.8 °F 24.4 °F 92% 30.26 in 10.0 mi SSE 10.4 mph - N/A   Overcast
7:35 PM 26.6 °F 15.2 °F 24.1 °F 90% 30.25 in 10.0 mi SE 13.8 mph 18.4 mph N/A   Overcast
7:55 PM 26.6 °F 14.7 °F 24.3 °F 91% 30.25 in 10.0 mi SE 15.0 mph - N/A   Overcast
8:15 PM 27.0 °F 15.6 °F 24.4 °F 90% 30.25 in 10.0 mi SSE 13.8 mph - N/A   Overcast
8:35 PM 27.0 °F 16.1 °F 24.8 °F 92% 30.24 in 10.0 mi SE 12.7 mph - N/A   Overcast
8:55 PM 27.0 °F 17.3 °F 24.8 °F 92% 30.24 in 10.0 mi SSE 10.4 mph - N/A   Overcast
9:15 PM 27.0 °F 15.2 °F 24.8 °F 92% 30.24 in 7.0 mi SSE 15.0 mph - N/A   Overcast
9:35 PM 26.6 °F 15.7 °F 24.8 °F 93% 30.24 in 10.0 mi SE 12.7 mph - N/A   Overcast
9:55 PM 26.6 °F 15.7 °F 24.6 °F 92% 30.24 in 10.0 mi SE 12.7 mph - N/A   Overcast
10:15 PM 27.0 °F 16.7 °F 24.8 °F 92% 30.24 in 10.0 mi SSE 11.5 mph 17.3 mph N/A   Overcast
10:35 PM 27.0 °F 16.1 °F 24.8 °F 92% 30.24 in 10.0 mi SSE 12.7 mph - N/A   Overcast
10:55 PM 26.6 °F 14.7 °F 24.8 °F 93% 30.23 in 10.0 mi SSE 15.0 mph - N/A   Overcast
11:15 PM 27.0 °F 16.1 °F 24.8 °F 92% 30.22 in 10.0 mi SSE 12.7 mph - N/A   Overcast
11:35 PM 27.0 °F 15.6 °F 24.8 °F 92% 30.21 in 10.0 mi SSE 13.8 mph - N/A   Overcast
11:55 PM 27.0 °F 15.6 °F 24.4 °F 90% 30.22 in 10.0 mi South 13.8 mph - N/A   Overcast